Weather Roundup
Issued by NWS Springfield, MO

Home | Current Version | Previous Version | Text Only | Print | Product List | Glossary On
Versions: 1 2 3 4 5 6 7 8 9 10 11 12 13 14 15 16 17 18 19 20 21 22 23 24 25 26 27 28 29 30 31 32 33 34 35 36 37 38 39 40 41 42 43 44 45 46 47 48 49 50
000
NZUS99 KSGF 051407
HRRSGF

HOURLY WEATHER
NATIONAL WEATHER SERVICE SPRINGFIELD MO
800 AM CST MON DEC 05 2016

......SGF CWA......

CITY           SKY/WX    TMP DP  RH WIND       PRES   REMARKS
SPRINGFIELD    FOG       32  32 100 SE7       29.94F VSB 1/8 WCI  26
JOPLIN         CLOUDY    32  32 100 SE5       29.94F FOG     WCI  27
WEST PLAINS    CLOUDY    32  31  96 SE3       30.00S FOG
ROLLA          CLOUDY    32  32 100 S5        29.98F FOG     WCI  27
OSAGE BEACH    CLOUDY    30  30 100 SE7       29.99S WCI  23
BRANSON        FOG       32  32 100 SE6       29.97F VSB 1/8 WCI  26

......SURROUNDING SGF CWA......

CITY           SKY/WX    TMP DP  RH WIND       PRES   REMARKS
CHANUTE        FOG       36  35  96 S6        29.91S VSB 1/4 WCI  31
PARSONS        CLEAR     35  34  96 SE6       29.92F FOG     WCI  30
COFFEYVILLE    CLEAR     32  32 100 S8        29.92F FOG     WCI  25
EMPORIA        FOG       29  29 100 SE9       29.86F VSB 1/2 WCI  20
GROVE OK       CLOUDY    30  30 100 CALM      29.95F FOG
ROGERS AR      CLOUDY    35  35 100 E7        29.94F VSB<1/4 WCI  29
SILOAM SPRINGS CLOUDY    30  28  93 E6        29.92F WCI  24
HARRISON AR    FOG       31  31 100 SE7       29.97R VSB 1/4 WCI  24
NEAR YELLVILLE CLOUDY    34  28  80 S3        29.98S VSB<1/4

......KANSAS AND MISSOURI......

CITY           SKY/WX    TMP DP  RH WIND       PRES   REMARKS
KANSAS CTY INT PTCLDY    32  30  92 S9        29.89F WCI  24
DOWNTOWN KC    CLEAR     35  34  96 S7        29.91S WCI  29
COLUMBIA       FOG       29  29 100 SE6       29.99S VSB 1/4 WCI  23
SEDALIA        CLEAR     30  28  92 S7        29.98S WCI  23
ST JOSEPH      CLEAR     32  31  96 S9        29.88F WCI  24
ST LOUIS       CLOUDY    38  33  82 SE7       30.05R WCI  33
SPIRIT OF STL  CLOUDY    26  26 100 CALM      30.04S FOG
KIRKSVILLE     FOG       32  30  92 S9        29.95F VSB<1/4 WCI  24
WICHITA        PTCLDY    31  29  92 S8        29.85R WCI  23
TOPEKA         CLEAR     33  30  88 S6        29.87F WCI  28
OLATHE         CLEAR     33  33 100 S6        29.91S FOG     WCI  28

......TENNESSEE......

CITY           SKY/WX    TMP DP  RH WIND       PRES   REMARKS
MEMPHIS        CLOUDY    43  40  89 E5        30.02R
NASHVILLE      CLOUDY    42  39  89 N8        30.07R FOG

......ARKANSAS.......

CITY           SKY/WX    TMP DP  RH WIND       PRES   REMARKS
FAYETTEVILLE   FOG       28  28 100 CALM      29.94F VSB<1/4
FT SMITH       FOG       37  36  96 E5        29.97R VSB 1/4 WCI  33
LITTLE ROCK    CLOUDY    41  41 100 NE6       30.00F

......OKLAHOMA.......

CITY           SKY/WX    TMP DP  RH WIND       PRES   REMARKS
TULSA          FOG       33  33 100 CALM      29.92S VSB 1/4
PONCA CITY     CLEAR     36  33  89 SE8       29.87F WCI  30
MCALESTER      FOG       35  34  96 CALM      29.93F VSB 1/4
OKLAHOMA CITY  FOG       31  30  96 S3        29.88S VSB 1/4

......IOWA............

CITY           SKY/WX    TMP DP  RH WIND       PRES   REMARKS
DES MOINES     CLOUDY    33  32  96 S9        29.85F FOG     WCI  25
QUAD CITIES    FOG       32  30  92 S9        29.98R VSB 1/2 WCI  24

......ILLINOIS........

CITY           SKY/WX    TMP DP  RH WIND       PRES   REMARKS
QUINCY         FOG       32  32 100 SE6       29.99F VSB 1/4 WCI  26
CHICAGO        CLOUDY    32  30  92 SW6       30.01R WCI  26




USA.gov is the U.S. government's official web portal to all federal, state and local government web resources and services.